[[{"header":{"parameterUnit":"m.s-1","parameterCategory":1,"la1":30.2991,"la2":30.254,"lo1":-89.0895,"lo2":-89.0444,"dy":0.0017,"dx":0.0017,"nx":28,"ny":28,"refTime":"2023-10-06T03:00:00:Z","depth":0,"parameterNumber":2,"parameterNumberName":"U-component_of_WINDS"},"data":[0,0,0,0,0,0,0,0,0,0,0,0,0,0,0,0,0,0,0,0,0,0,0,0,0,0,0,0,0,0,0,0,0,0,0,0,0,0,0,0,0,0,0,0,0,0,0,0,0,0,0,0,0,0,0,0,0,0,-0.019,-0.019,0,-0.0213,-0.0213,-0.0213,-0.0192,-0.0192,-0.0191,-0.019,-0.0215,-0.0217,-0.0218,0,0,0,0,0,0,0,0,0,0,0,0,0,-0.013,-0.0131,-0.019,-0.019,-0.0191,-0.0213,-0.0213,-0.0213,-0.0192,-0.0191,-0.019,-0.0189,-0.0215,-0.0216,-0.0218,0,0,0,0,0,0,0,0,0,0,0,0,0,-0.0155,-0.0131,-0.019,-0.0183,-0.0182,-0.0213,-0.0213,-0.0213,-0.0193,-0.0191,-0.019,-0.0189,-0.0214,-0.0216,-0.0218,-0.0257,0,0,-0.0225,-0.0226,0,0,0,0,0,0,0,0,-0.0153,-0.0157,-0.0184,-0.0183,-0.0183,-0.0198,-0.0201,-0.0228,-0.0193,-0.0189,-0.019,-0.0188,-0.0211,-0.0213,-0.022,-0.0258,-0.026,-0.0225,-0.0227,-0.0227,-0.0228,0,0,0,0,0,0,0,-0.0152,-0.0156,-0.0199,-0.0184,-0.0184,-0.0179,-0.0181,-0.0206,-0.0207,-0.0189,-0.0188,-0.0191,-0.021,-0.0218,-0.0221,-0.026,-0.0225,-0.0227,-0.0228,-0.0229,-0.033,-0.0331,0,0,0,0,0,0,-0.015,-0.0154,-0.0198,-0.02,-0.0165,-0.0181,-0.0183,-0.0195,-0.0206,-0.0207,-0.0192,-0.0189,-0.0215,-0.0218,-0.0221,-0.0267,-0.0227,-0.023,-0.0231,-0.0329,-0.033,-0.0332,0,0,0,0,0,0,-0.0149,-0.0154,-0.0197,-0.0177,-0.0182,-0.0183,-0.0196,-0.0196,-0.0204,-0.0208,-0.0208,-0.0199,-0.0214,-0.0218,-0.0248,-0.0268,-0.0231,-0.0233,-0.0327,-0.0329,-0.0331,-0.036,0,0,0,0,0,0,-0.0148,-0.0154,-0.0169,-0.0177,-0.0183,-0.0224,-0.0198,-0.0197,-0.0207,-0.0205,-0.0216,-0.0216,-0.0213,-0.0245,-0.025,-0.027,-0.0234,-0.0325,-0.0328,-0.033,-0.0357,-0.0363,-0.0367,0,0,0,0,0,-0.0145,-0.0177,-0.017,-0.0175,-0.0201,-0.0225,-0.0228,-0.0224,-0.0209,-0.0224,-0.0226,-0.0216,-0.0264,-0.0248,-0.0254,-0.0275,-0.0324,-0.0327,-0.033,-0.0355,-0.0361,-0.0367,0,0,0,0,0,0,-0.0173,-0.0178,-0.017,-0.0205,-0.0215,-0.0221,-0.024,-0.0231,-0.0246,-0.0243,-0.0237,-0.024,-0.0271,-0.0276,-0.0257,-0.0312,-0.0292,-0.0296,-0.0309,-0.0315,-0.032,-0.0319,-0.0236,0,0,0,0,0,-0.0182,-0.02,-0.0204,-0.0235,-0.024,-0.0239,-0.0249,-0.0245,-0.0255,-0.0259,-0.0264,-0.0274,-0.0291,-0.0303,-0.032,-0.0357,-0.0359,-0.0374,-0.0379,-0.0383,-0.0388,-0.0407,-0.0414,-0.0342,-0.0342,-0.0342,0,0,-0.0203,-0.0208,-0.0221,-0.024,-0.0247,-0.0266,-0.0243,-0.0264,-0.0279,-0.0262,-0.0291,-0.0294,-0.0305,-0.0339,-0.0354,-0.0344,-0.0407,-0.0387,-0.039,-0.0393,-0.0411,-0.0418,-0.0424,-0.0344,-0.0343,-0.0343,0,0,-0.0251,-0.0257,-0.0283,-0.0289,-0.0299,-0.0298,-0.0304,-0.0312,-0.0314,-0.0341,-0.0329,-0.0346,-0.0376,-0.0384,-0.0393,-0.0441,-0.0432,-0.0447,-0.0474,-0.0492,-0.0498,-0.0503,-0.0521,-0.0527,-0.045,-0.0451,-0.0451,0,-0.0277,-0.0305,-0.0297,-0.0319,-0.0328,-0.0313,-0.0338,-0.0346,-0.0361,-0.0367,-0.0355,-0.0392,-0.0399,-0.0433,-0.0445,-0.0452,-0.0459,-0.0446,-0.0498,-0.0503,-0.0507,-0.0524,-0.053,-0.0452,-0.0452,-0.0452,-0.0452,0,-0.0335,-0.0354,-0.0374,-0.0388,-0.0398,-0.0422,-0.0419,-0.0431,-0.0424,-0.0425,-0.0453,-0.0459,-0.0476,-0.0484,-0.0479,-0.0518,-0.0511,-0.0498,-0.0478,-0.0516,-0.0531,-0.0538,-0.0455,-0.0454,-0.0454,-0.0453,0,0,-0.0403,-0.0411,-0.0418,-0.0423,-0.0432,-0.0447,-0.047,-0.0485,-0.0496,-0.0506,-0.0525,-0.055,-0.0538,-0.0547,-0.0542,-0.0559,-0.0596,-0.0544,-0.0544,-0.0554,-0.0639,-0.0649,-0.0657,-0.0589,-0.059,-0.0591,-0.0638,0,-0.0452,-0.0491,-0.0484,-0.0522,-0.0539,-0.0523,-0.0543,-0.055,-0.0551,-0.0566,-0.0566,-0.0584,-0.0566,-0.0571,-0.0587,-0.0588,-0.0614,-0.0585,-0.0607,-0.0608,-0.0606,-0.0665,-0.0676,-0.072,-0.0644,-0.0645,-0.0646,0,-0.0514,-0.0525,-0.0565,-0.0569,-0.0576,-0.0594,-0.0607,-0.0621,-0.0629,-0.0628,-0.0637,-0.0629,-0.0651,-0.0629,-0.0659,-0.064,-0.0648,-0.065,-0.0652,-0.0655,-0.063,-0.067,-0.0734,-0.0741,-0.0655,-0.0655,-0.0654,0,-0.056,-0.0585,-0.0612,-0.0617,-0.0623,-0.0635,-0.0638,-0.0645,-0.0654,-0.0665,-0.0671,-0.0685,-0.0693,-0.0704,-0.07,-0.0684,-0.0731,-0.0708,-0.0731,-0.0731,-0.0743,-0.0743,-0.081,-0.0747,-0.0747,-0.0747,-0.0747,0,-0.0616,-0.0641,-0.0632,-0.0649,-0.0675,-0.0667,-0.0694,-0.0695,-0.07,-0.0717,-0.0704,-0.072,-0.0712,-0.0727,-0.0724,-0.0749,-0.0753,-0.0753,-0.0752,-0.0755,-0.0755,-0.0761,-0.0758,-0.0749,-0.0748,-0.0748,-0.0748,0,-0.0673,-0.0668,-0.0696,-0.0698,-0.0699,-0.0719,-0.0721,-0.0736,-0.0734,-0.0755,-0.076,-0.0757,-0.0774,-0.077,-0.0789,-0.0786,-0.0819,-0.0814,-0.0816,-0.0815,-0.0838,-0.0836,-0.0913,-0.0922,-0.0853,-0.0853,-0.0854,0,-0.0709,-0.0727,-0.0731,-0.0741,-0.0744,-0.076,-0.0769,-0.076,-0.077,-0.0779,-0.0793,-0.0809,-0.0821,-0.0848,-0.0849,-0.0863,-0.0858,-0.0884,-0.086,-0.0862,-0.0859,-0.0858,-0.086,-0.0889,-0.089,-0.089,-0.0891,0,-0.0774,-0.077,-0.0783,-0.0795,-0.0805,-0.0814,-0.0822,-0.0831,-0.0823,-0.0835,-0.0851,-0.086,-0.0878,-0.0894,-0.0906,-0.091,-0.0899,-0.0898,-0.0904,-0.0908,-0.0908,-0.0908,-0.083,-0.0897,-0.0896,-0.0896,-0.0895,-0.0895,-0.0822,-0.0837,-0.0842,-0.0856,-0.0861,-0.0868,-0.0882,-0.0881,-0.0894,-0.0908,-0.0902,-0.0921,-0.0927,-0.0942,-0.0947,-0.0961,-0.0952,-0.0961,-0.0963,-0.0965,-0.0968,-0.0905,-0.0964,-0.0963,-0.0963,-0.0963,-0.0963,0,-0.0887,-0.0888,-0.0901,-0.0912,-0.0923,-0.091,-0.0918,-0.0929,-0.0945,-0.0951,-0.0962,-0.0981,-0.0995,-0.0995,-0.1009,-0.102,-0.1016,-0.1024,-0.1024,-0.1025,-0.0976,-0.097,-0.1028,-0.1027,-0.1027,-0.1027,-0.1027,-0.1027,-0.0922,-0.0946,-0.0943,-0.0969,-0.0971,-0.0989,-0.0994,-0.1,-0.1005,-0.1026,-0.1037,-0.1036,-0.104,-0.1053,-0.1066,-0.1065,-0.1071,-0.1081,-0.1079,-0.1034,-0.1028,-0.1022,-0.1016,-0.1083,-0.1083,-0.1127,-0.1127,-0.1127]},{"header":{"parameterUnit":"m.s-1","parameterCategory":1,"la1":30.2991,"la2":30.254,"lo1":-89.0895,"lo2":-89.0444,"dy":0.0017,"dx":0.0017,"nx":28,"ny":28,"refTime":"2023-10-06T03:00:00:Z","depth":0,"parameterNumber":3,"parameterNumberName":"V-component_of_WINDS"},"data":[0,0,0,0,0,0,0,0,0,0,0,0,0,0,0,0,0,0,0,0,0,0,0,0,0,0,0,0,0,0,0,0,0,0,0,0,0,0,0,0,0,0,0,0,0,0,0,0,0,0,0,0,0,0,0,0,0,0,-7.2763,-7.2765,0,-7.2912,-7.2914,-7.2916,-7.2815,-7.2811,-7.2806,-7.2802,-7.2948,-7.2956,-7.2964,0,0,0,0,0,0,0,0,0,0,0,0,0,-7.2385,-7.2393,-7.2763,-7.2765,-7.2767,-7.2912,-7.2914,-7.2916,-7.2816,-7.2811,-7.2805,-7.28,-7.2946,-7.2955,-7.2965,0,0,0,0,0,0,0,0,0,0,0,0,0,-7.2543,-7.2395,-7.2763,-7.2735,-7.2734,-7.2912,-7.2914,-7.2917,-7.2817,-7.2811,-7.2804,-7.2797,-7.2942,-7.2954,-7.2966,-7.3178,0,0,-7.3004,-7.3009,0,0,0,0,0,0,0,0,-7.2534,-7.2557,-7.2737,-7.2737,-7.2736,-7.2838,-7.2834,-7.3004,-7.2819,-7.2785,-7.2802,-7.2794,-7.2917,-7.2931,-7.2973,-7.3185,-7.3191,-7.3005,-7.3012,-7.3017,-7.3021,0,0,0,0,0,0,0,-7.2524,-7.255,-7.2822,-7.274,-7.2739,-7.2712,-7.2727,-7.2866,-7.2887,-7.2788,-7.2781,-7.28,-7.2915,-7.2962,-7.2976,-7.3193,-7.3004,-7.3015,-7.3023,-7.3027,-7.3584,-7.3591,0,0,0,0,0,0,-7.2516,-7.2542,-7.2817,-7.2826,-7.2617,-7.2725,-7.2741,-7.2812,-7.2886,-7.289,-7.2806,-7.2795,-7.2944,-7.2962,-7.2981,-7.3233,-7.3017,-7.3029,-7.3036,-7.3577,-7.3586,-7.3594,0,0,0,0,0,0,-7.2508,-7.2542,-7.2811,-7.2682,-7.2715,-7.2739,-7.2819,-7.2819,-7.2866,-7.2899,-7.2902,-7.285,-7.294,-7.2964,-7.313,-7.3236,-7.3034,-7.3045,-7.3568,-7.3579,-7.359,-7.3739,0,0,0,0,0,0,-7.2498,-7.2539,-7.2622,-7.2685,-7.2722,-7.2961,-7.2826,-7.2827,-7.2888,-7.2875,-7.2942,-7.2946,-7.2936,-7.3112,-7.3142,-7.325,-7.3055,-7.3558,-7.3573,-7.3586,-7.3725,-7.3754,-7.3779,0,0,0,0,0,-7.2485,-7.2657,-7.2627,-7.266,-7.2826,-7.2967,-7.2988,-7.2975,-7.2897,-7.2979,-7.3,-7.2944,-7.322,-7.313,-7.3163,-7.3276,-7.3552,-7.3569,-7.3585,-7.3713,-7.3748,-7.3779,0,0,0,0,0,0,-7.2604,-7.2665,-7.2632,-7.283,-7.2894,-7.295,-7.3053,-7.3013,-7.3099,-7.3083,-7.3061,-7.3077,-7.3251,-7.328,-7.3178,-7.3484,-7.3373,-7.3397,-7.3459,-7.3493,-7.352,-7.3509,-7.3065,0,0,0,0,0,-7.2654,-7.2765,-7.2811,-7.2981,-7.3016,-7.3029,-7.309,-7.3074,-7.3139,-7.3165,-7.3199,-7.3262,-7.3362,-7.3429,-7.3524,-7.3728,-7.374,-7.3822,-7.3849,-7.3871,-7.3892,-7.4001,-7.4038,-7.3649,-7.3649,-7.3649,0,0,-7.2756,-7.2804,-7.2875,-7.3007,-7.3055,-7.3168,-7.3053,-7.3178,-7.3261,-7.3183,-7.3343,-7.337,-7.3438,-7.3625,-7.3708,-7.3654,-7.4002,-7.3893,-7.391,-7.3919,-7.4022,-7.4059,-7.4092,-7.366,-7.3658,-7.3657,0,0,-7.3002,-7.305,-7.3197,-7.3248,-7.3322,-7.333,-7.3365,-7.3427,-7.3443,-7.3603,-7.3546,-7.3644,-7.3818,-7.3869,-7.3918,-7.4183,-7.4134,-7.4214,-7.4356,-7.4462,-7.4493,-7.452,-7.4614,-7.4648,-7.4235,-7.4235,-7.4235,0,-7.3121,-7.3292,-7.3277,-7.3407,-7.3466,-7.3402,-7.3549,-7.3598,-7.3699,-7.374,-7.3678,-7.3896,-7.3937,-7.4134,-7.4199,-7.4241,-7.4279,-7.4206,-7.449,-7.4517,-7.4542,-7.4631,-7.4666,-7.4244,-7.4243,-7.4242,-7.4242,0,-7.3433,-7.3553,-7.3662,-7.3764,-7.3834,-7.3972,-7.3976,-7.4049,-7.4027,-7.404,-7.4203,-7.4251,-7.4354,-7.4399,-7.4378,-7.4593,-7.4557,-7.4493,-7.4382,-7.4589,-7.4672,-7.4706,-7.4258,-7.4254,-7.4252,-7.4249,0,0,-7.3759,-7.385,-7.3891,-7.3935,-7.4013,-7.4104,-7.4237,-7.434,-7.4403,-7.4474,-7.4585,-7.4734,-7.4675,-7.4731,-7.4714,-7.4808,-7.5014,-7.4733,-7.4734,-7.4783,-7.5252,-7.5299,-7.5339,-7.4982,-7.4988,-7.4993,-7.5246,0,-7.4009,-7.4246,-7.4235,-7.4455,-7.4564,-7.4505,-7.4621,-7.468,-7.4696,-7.4789,-7.4805,-7.4911,-7.4826,-7.4859,-7.4949,-7.497,-7.5107,-7.4951,-7.5082,-7.5087,-7.5067,-7.5382,-7.5433,-7.5669,-7.5278,-7.5284,-7.5288,0,-7.4333,-7.4417,-7.4649,-7.471,-7.4755,-7.486,-7.4953,-7.5043,-7.5107,-7.5112,-7.5175,-7.5143,-7.5276,-7.5161,-7.5343,-7.5237,-7.529,-7.5308,-7.5317,-7.5328,-7.52,-7.5402,-7.5744,-7.578,-7.5339,-7.5335,-7.5331,0,-7.4546,-7.4718,-7.4878,-7.4918,-7.4993,-7.5068,-7.5102,-7.516,-7.5222,-7.5302,-7.5342,-7.5436,-7.5487,-7.5559,-7.5553,-7.547,-7.5737,-7.5622,-7.5743,-7.5744,-7.5802,-7.5799,-7.6158,-7.5837,-7.5837,-7.5836,-7.5835,0,-7.4826,-7.497,-7.4975,-7.5074,-7.5233,-7.5218,-7.5375,-7.5401,-7.5453,-7.5554,-7.5507,-7.5602,-7.5588,-7.5683,-7.5679,-7.5829,-7.5853,-7.5859,-7.5856,-7.5863,-7.5862,-7.5897,-7.588,-7.5845,-7.5843,-7.5841,-7.584,0,-7.5092,-7.5102,-7.5273,-7.533,-7.5347,-7.5462,-7.5509,-7.5601,-7.5613,-7.5741,-7.577,-7.5788,-7.5897,-7.5899,-7.6023,-7.6019,-7.6204,-7.6182,-7.6183,-7.6179,-7.6299,-7.6288,-7.6693,-7.6745,-7.6391,-7.6395,-7.6397,0,-7.527,-7.538,-7.5449,-7.5515,-7.5554,-7.566,-7.5723,-7.5712,-7.578,-7.5861,-7.5943,-7.6048,-7.6132,-7.6309,-7.6331,-7.6426,-7.6406,-7.6541,-7.6419,-7.6423,-7.6407,-7.6401,-7.6411,-7.6565,-7.6569,-7.6572,-7.6575,0,-7.5586,-7.5585,-7.5679,-7.5776,-7.5853,-7.5928,-7.5997,-7.6053,-7.6049,-7.6127,-7.6239,-7.6304,-7.6432,-7.6536,-7.6627,-7.6659,-7.6617,-7.6613,-7.6646,-7.6654,-7.665,-7.6653,-7.6248,-7.6603,-7.6601,-7.6598,-7.6597,-7.6596,-7.5813,-7.5907,-7.5971,-7.6077,-7.6128,-7.6194,-7.6283,-7.6307,-7.6401,-7.6505,-7.6492,-7.6617,-7.6676,-7.6795,-7.6835,-7.6931,-7.6883,-7.6931,-7.6943,-7.6955,-7.6968,-7.6635,-7.6947,-7.6946,-7.6945,-7.6945,-7.6944,0,-7.6125,-7.6163,-7.6261,-7.636,-7.6443,-7.6398,-7.6471,-7.6543,-7.6654,-7.6715,-7.6798,-7.6927,-7.7027,-7.7058,-7.7155,-7.7225,-7.7208,-7.7251,-7.7246,-7.7254,-7.7005,-7.6967,-7.7264,-7.7264,-7.7264,-7.7263,-7.7263,-7.7263,-7.6297,-7.6454,-7.6461,-7.6642,-7.6678,-7.6802,-7.6847,-7.6907,-7.6955,-7.7101,-7.7185,-7.7205,-7.7253,-7.7353,-7.7443,-7.7449,-7.7486,-7.7538,-7.7536,-7.7303,-7.7271,-7.724,-7.7204,-7.7546,-7.7546,-7.7776,-7.7778,-7.778]}]]